Location: Baumgarten
(49.0970°N, 12.7493°E)
Time: 08:36:59
(UTC+00:00)

Cosmos 1943 Rocket - Pass Details

Date: 05 July 2020
Orbit: 811 x 845 km, 71.0° (Epoch: 04 August)

Event Time Altitude Azimuth Distance (km) Brightness Sun altitude
Rises 22:52:59 0° 332° (NNW) 3,417 6.6 -18.1°
Reaches altitude 10° 22:55:28 10° 334° (NNW) 2,478 5.7 -18.1°
Maximum altitude 23:01:10 73° 60° (ENE) 886 2.3 -18.2°
Enters shadow 23:04:38 24° 141° (SE) 1,667 3.3 -18.2°
